Regional Weather Roundup
Issued by NWS

Home | Current Version | Previous Version | Graphics & Text | Print | Product List | Glossary On
Versions: 1 2 3 4 5 6 7 8 9 10 11 12 13 14 15 16 17 18 19 20 21 22 23 24 25 26 27 28 29 30 31 32 33 34 35 36 37 38 39 40 41 42 43 44 45 46 47 48 49 50
476
ASUS43 KMKX 282321
RWRWI

WISCONSIN REGIONAL WEATHER ROUNDUP
NATIONAL WEATHER SERVICE MILWAUKEE/SULLIVAN WI
600 PM CDT WED JUN 28 2017

NOTE: "FAIR" INDICATES FEW OR NO CLOUDS BELOW 12,000 FEET WITH NO
SIGNIFICANT WEATHER AND/OR OBSTRUCTIONS TO VISIBILITY.

WIZ001-002-006>008-014>016-023>028-290000-
NORTHWEST WISCONSIN

CITY           SKY/WX    TMP DP  RH WIND       PRES   REMARKS
SUPERIOR ARPT  NOT AVBL
ASHLAND        CLOUDY    65  64  97 E5        29.55F
HAYWARD        RAIN      67  64  90 SE6       29.53F FOG
SIREN          HVY RAIN  68  66  93 SW13G18   29.51R
CUMBERLAND     TSTM      66  64  94 S10       29.54S
RICE LAKE      TSTM      68  66  92 S10       29.56R
CHETEK           N/A     69  67  95 CALM      29.55S
LADYSMITH      CLOUDY    69  67  91 SE7       29.59S
EAU CLAIRE     LGT RAIN  71  68  90 S12       29.54F
MENOMONIE      TSTM      66  66  98 N3        29.53F
NEW RICHMOND   CLOUDY    69  67  92 W8        29.53S
OSCEOLA        CLOUDY    71  71 100 W9        29.54F
$$

WIZ003>005-009-010-017-018-290000-
NORTH CENTRAL WISCONSIN

CITY           SKY/WX    TMP DP  RH WIND       PRES   REMARKS
MANITOWISH WTR CLOUDY    62  62 100 SE9       29.62F
ARBOR VITAE    DRIZZLE   63  62  96 SE8       29.63F
WOODRUFF       DRIZZLE   63  62  96 SE8       29.63F
RHINELANDER    CLOUDY    62  62 100 SE7       29.65F
EAGLE RIVER    HVY RAIN  61  61 100 S7        29.65F
LAND O LAKES   LGT RAIN  63  61  96 SE8       29.66F
PHILLIPS       CLOUDY    64  64 100 SE6       29.60R
TOMAHAWK       NOT AVBL
MEDFORD        CLOUDY    67  64  91 S9        29.62R
MERRILL        CLOUDY    66  65  99 S6        29.65R
$$

WIZ029-030-035-036-043>047-290000-
CENTRAL WISCONSIN

CITY           SKY/WX    TMP DP  RH WIND       PRES   REMARKS
WAUSAU         CLOUDY    66  64  93 S13       29.63F
MOSINEE        CLOUDY    66  64  94 S15       29.65F
MARSHFIELD     CLOUDY    67  64  90 S9        29.62F
STEVENS POINT  CLOUDY    66  65  97 S14       29.67R
WAUPACA        CLOUDY    69  68  94 SE10      29.67R
WAUTOMA        CLOUDY    68  66  93 VRB6      29.65F
WISC RAPIDS    CLOUDY    69  66  90 S7        29.66S
CAMP DOUGLAS   CLOUDY    70  68  94 S3        29.64R
$$

WIZ011>013-019>022-031-037>040-048>050-290000-
NORTHEAST WISCONSIN

CITY           SKY/WX    TMP DP  RH WIND       PRES   REMARKS
ANTIGO         CLOUDY    64  63  99 S10G20    29.67S
SHAWANO        CLOUDY    68  64  88 S8        29.67F
OCONTO         CLOUDY    67  64  91 S6        29.68F
STURGEON BAY     N/A     61  59  93 S14       29.72F
GREEN BAY      CLOUDY    69  67  93 S13       29.68F
MANITOWOC      CLOUDY    61  57  88 S18G24    29.73F
APPLETON       CLOUDY    66  66 100 S15G23    29.69F
CLINTONVILLE   CLOUDY    66  63  88 S9        29.67F
OSHKOSH        CLOUDY    69  65  86 S13G20    29.69R
$$

WIZ032>034-041-042-053>061-290000-
SOUTHWEST WISCONSIN

CITY           SKY/WX    TMP DP  RH WIND       PRES   REMARKS
LA CROSSE      CLOUDY    74  68  81 SE6       29.60S
SPARTA         CLOUDY    68  66  93 S3        29.63R
VIROQUA        CLOUDY    67  65  96 SW12      29.66R
BOSCOBEL       TSTM      71  67  87 S14G29    29.64F FOG
PRAIRIE DU CHI LGT RAIN  65  63  95 S8        29.64R
PLATTEVILLE    CLOUDY    72  72 100 SE17      29.64F
$$

WIZ056-057-062-063-064-067-068-290000-
SOUTH CENTRAL WISCONSIN

CITY           SKY/WX    TMP DP  RH WIND       PRES   REMARKS
REEDSBURG      LGT RAIN  69  69 100 S12G22    29.64R
BARABOO/DELLS  CLOUDY    69  67  92 S25G38    29.63F
LONE ROCK      TSTM      70  66  87 NW13      29.69R FOG
MINERAL POINT  CLOUDY    73  72  94 S10G21    29.67F
MADISON        TSTM      72  67  84 N9        29.72S
MIDDLETON      CLOUDY    73  68  83 CALM      29.72S
WATERTOWN      CLOUDY    71  69  93 S14G20    29.73F
MONROE         CLOUDY    73  66  78 S18G28    29.72F
JANESVILLE     CLOUDY    73  70  88 S15G21    29.74F
$$

WIZ051-052-058>065-066-070>072-290000-
SOUTHEAST WISCONSIN

CITY           SKY/WX    TMP DP  RH WIND       PRES   REMARKS
MILWAUKEE      TSTM      71  66  84 S13       29.76F
WAUKESHA       LGT RAIN  66  64  94 S10       29.78F
MILWAUKEE/TIMM LGT RAIN  68  63  83 SW6       29.78F
RACINE         LGT RAIN  73  66  78 S9        29.78F
KENOSHA        TSTM      72  66  81 SW10      29.77F
FOND DU LAC    CLOUDY    70  64  81 S18G28    29.70F
SHEBOYGAN      CLOUDY    63  63 100 S13G24    29.73F FOG
WEST BEND      CLOUDY    64  64 100 S9        29.74F
JUNEAU         CLOUDY    68  65  90 S12G18    29.75R
$$

LSZ147-162-290000-
LAKE SUPERIOR

STATION/POSITION TIME  TEMP    WIND        PRES    WAVE
                       AIR SEA DIR/SP/G            HT/PER
                 (UTC) (F)     (DEG/KT/KT) (MB)    (FT/S)
W MID LAKE BUOY  2250   47 39   60/ 10/ 10 1002.9F   1
DEVILS ISLAND    2300   56      90/ 16/ 17 1000.8F
PORT WING        2100   57      20/ 18/ 21 1001.0
SAXON HARBOR     2240   66     190/  3/  6 1000.7F
$$

LMZ867-665-643>646-290000-
LAKE MICHIGAN

STATION/POSITION TIME  TEMP    WIND        PRES    WAVE
                       AIR SEA DIR/SP/G            HT/PER
                 (UTC) (F)     (DEG/KT/KT) (MB)    (FT/S)
CHAMBERS ISLAND  2240   62     140/  4/ 12 1006.1F
S GREEN BAY BUOY 2300   65     160/ 12/ 16 1005.2
N MID LAKE BUOY  2250   57 53  180/ 17/ 19 1008.3F   5/ 7
NORTHPORT PIER   2300   60     160/  9/ 27 1006.4
KEWAUNEE LAKESHO 2248   55     170/ 15/ 20 1005.9F
SHEBOYGAN LAKESH 2300   56     170/ 19/ 21 1006.1F
PORT WASHINGTON  2300   59     140/ 11/ 12 1008.8
ATWATER BUOY     2209   58 51  160/  8/ 10 1008.5F
MILWAUKEE LAKESH 2300   69     200/ 17/ 19   N/A
S MID LAKE BUOY  2250   66 60  160/ 21/ 23 1008.1F   4/ 5
KENOSHA   LAKESH 2300   64     180/  9/ 12 1007.8
$$

TC  - TEMPERATURE IN CELSIUS
VSB - VISIBILITY IN STATUTE MILES
WCI - WIND CHILL INDEX
HX  - HEAT INDEX





USA.gov is the U.S. government's official web portal to all federal, state and local government web resources and services.